Location: Palomar Mountain Lodge
(33.3110°N, 116.8495°W)
Time: 05:37:06
(UTC-07:00)

Gbstr 26 Del rocket - Pass Details

Date: 19 May 2017
Orbit: 493 x 1266 km, 51.8° (Epoch: 22 July)

Event Time Altitude Azimuth Distance (km) Brightness Sun altitude
Rises 22:47:28 0° 314° (NW) 4,126 8.4 -29.9°
Reaches altitude 10° 22:50:16 10° 317° (NW) 3,207 7.6 -30.2°
Maximum altitude 22:58:21 73° 42° (NE) 1,313 4.5 -31.0°
Enters shadow 22:59:28 65° 91° (E) 1,370 4.5 -31.1°
